Regional Weather Roundup
Issued by NWS

Home | Current Version | Previous Version | Text Only | Print | Product List | Glossary On
Versions: 1 2 3 4 5 6 7 8 9 10 11 12 13 14 15 16 17 18 19 20 21 22 23 24 25 26 27 28 29 30 31 32 33 34 35 36 37 38 39 40 41 42 43 44 45 46 47 48 49 50
980
ASUS45 KREV 241310
RWRNV
NEVADA REGIONAL WEATHER ROUNDUP
NATIONAL WEATHER SERVICE RENO NV
600 AM PDT SAT JUN 24 2017

NOTE: "FAIR" INDICATES FEW OR NO CLOUDS BELOW 12,000 FEET WITH NO
SIGNIFICANT WEATHER AND/OR OBSTRUCTIONS TO VISIBILITY.

NVZ001-003-004-241400-
WESTERN NEVADA

CITY           SKY/WX    TMP DP  RH WIND       PRES   REMARKS
RENO           CLEAR     69  46  43 CALM      30.19R
MINDEN         FAIR      50  43  76 E5        30.23R
FALLON         CLEAR     57  37  47 SW6       30.16R
LOVELOCK       CLEAR     68  31  25 NE8       30.16R
HAWTHORNE      CLEAR     70  36  28 W6        30.16R
$$

NVZ002-CAZ072-073-241400-
NORTHERN AND CENTRAL SIERRA

CITY           SKY/WX    TMP DP  RH WIND       PRES   REMARKS
S. LAKE TAHOE  CLEAR     50  46  86 CALM      30.32R
TRUCKEE        FOG       46  46 100 CALM      30.31S VSB<1/4
SQUAW VLY 8000   N/A     55  36  47 E2          N/A
SUSANVILLE     CLEAR     57  45  62 W3        30.18R
MAMMOTH LAKES  FAIR      54  38  55 N3        30.38S
BRIDGEPORT     FAIR      46  36  68 CALM      30.37R HAZE
$$

NVZ030-031-036-241400-
NORTHERN NEVADA

CITY           SKY/WX    TMP DP  RH WIND       PRES   REMARKS
ELKO           PTCLDY    49  35  58 CALM      30.27R
WINNEMUCCA     CLEAR     49  35  58 CALM      30.21R
WENDOVER         N/A     67  31  26 CALM      30.20R
$$

NVZ035-037-241400-
CENTRAL NEVADA

CITY           SKY/WX    TMP DP  RH WIND       PRES   REMARKS
ELY            PTCLDY    43  19  38 S10       30.32R
EUREKA           N/A     50  28  42 S7        30.30R
$$

NVZ013-014-241400-
SOUTH CENTRAL NEVADA

CITY           SKY/WX    TMP DP  RH WIND       PRES   REMARKS
TONOPAH        CLEAR     66  25  21 N14       30.23R
$$

NVZ017-020-022-241400-
SOUTHERN NEVADA

CITY           SKY/WX    TMP DP  RH WIND       PRES   REMARKS
LAS VEGAS      PTCLDY    90  21   8 NE6       29.87R
N. LAS VEGAS   CLEAR     91  21   8 N12       29.87R
NELLIS AFB     CLEAR     92  25   9 NW6       29.85R
HENDERSON      CLEAR     87  30  13 NE8       29.92R
MERCURY        CLEAR     85  22  10 NE16      29.99R
$$




USA.gov is the U.S. government's official web portal to all federal, state and local government web resources and services.